Regional Weather Roundup
Issued by NWS

Home | Current Version | Previous Version | Text Only | Print | Product List | Glossary Off
Versions: 1 2 3 4 5 6 7 8 9 10 11 12 13 14 15 16 17 18 19 20 21 22 23 24 25 26 27 28 29 30 31 32 33 34 35 36 37 38 39 40 41 42 43 44 45 46 47 48 49 50

000
ASUS43 KLMK 182102
RWRKY
KENTUCKY REGIONAL WEATHER ROUNDUP
NATIONAL WEATHER SERVICE LOUISVILLE KY
500 PM EDT WED OCT 18 2017

NOTE "FAIR" INDICATES FEW OR NO CLOUDS BELOW 12,000 FEET
WITH NO SIGNIFICANT WEATHER AND/OR OBSTRUCTIONS TO VISIBILITY.

KYZ001>023-026-027-061>063-070>075-182200-
WESTERN AND SOUTH CENTRAL KENTUCKY

CITY           SKY/WX    TMP DP  RH WIND       PRES   REMARKS
PADUCAH        SUNNY     73  46  38 S10       30.17F
HENDERSON      SUNNY     72  45  37 S9        30.19F
OWENSBORO      SUNNY     72  47  40 S9        30.20F
HOPKINSVILLE   SUNNY     71  44  36 S9        30.21S
BOWLING GREEN  SUNNY     71  43  36 S8        30.23F
GLASGOW        NOT AVBL
$$

KYZ024-025-028>034-038-045-046-053-182200-
NORTH CENTRAL KENTUCKY

CITY           SKY/WX    TMP DP  RH WIND       PRES   REMARKS
LOUISVILLE/SDF PTSUNNY   71  44  37 S12       30.21F
LOUISVILLE/LOU SUNNY     70  47  43 S6        30.22F
FORT KNOX      SUNNY     69  45  42 S10       30.21F
$$

KYZ035>037-039>044-047>052-055>060-089>105-182200-
NORTHEAST KENTUCKY

CITY           SKY/WX    TMP DP  RH WIND       PRES   REMARKS
LEXINGTON      MOSUNNY   69  47  45 SW5       30.24F
COVINGTON      MOSUNNY   68  45  43 VRB7      30.21F
FRANKFORT      MOSUNNY   69  41  36 VRB7      30.22F
$$

KYZ054-064>069-076>088-106>120-182200-
SOUTHEAST KENTUCKY

CITY           SKY/WX    TMP DP  RH WIND       PRES   REMARKS
JACKSON        SUNNY     66  41  40 CALM      30.26F
LONDON         SUNNY     68  40  35 SW5       30.26F
SOMERSET       NOT AVBL
MIDDLESBORO    CLOUDY    69  45  42 CALM      30.27S
MONTICELLO     CLEAR     68  45  43 W13       30.27F
$$





USA.gov is the U.S. government's official web portal to all federal, state and local government web resources and services.